Orbital elements:
2020 PL2                                                 Earth MOID = 0.0140 AU
Epoch 2020 May 31.0 TT = JDT 2459000.5                  Veres
M 357.16113              (2000.0)            P               Q
n   0.99484451     Peri.  239.69245     -0.84190238     +0.40077971
a   0.9938006      Node   320.43150     -0.01310169     -0.68461496
e   0.4374206      Incl.   34.56028     -0.53947079     -0.60883330
P   0.99           H   23.1           G   0.15           U   7
Residuals in seconds of arc
200813 T05  0.1-  0.1+    200813 C82  0.4-  0.0     200814 L07  0.1+  0.1+
200813 T05  0.2-  0.1+    200813 C82  1.3-  0.1-    200814 958  0.7+  0.2-
200813 T05  0.3+  0.1+    200813 B49  0.3+  0.0     200814 X31  1.0-  0.2+
200813 T05  0.3+  0.5-    200813 G17  0.5+  0.5-    200814 958  0.4+  0.2-
200813 T08  0.7-  0.5+    200813 G17  0.1+  0.6-    200814 X31  1.2-  0.4+
200813 T05  0.2+  0.1-    200813 B49  0.1+  0.3+    200814 958  0.5+  0.1-
200813 T08  0.3+  0.0     200813 G17 (0.9+  2.4-)   200814 958  0.4+  0.1-
200813 T05  0.6-  0.1+    200813 G17  0.8+  0.7-    200814 U55  0.2-  0.1-
200813 T08  0.2-  0.0     200813 G17  0.6+  0.5-    200814 U55  0.4-  0.5+
200813 T08  0.1-  0.3+    200813 G17  0.8+  0.6-    200814 U55  0.4-  0.7+
200813 T08  0.1+  0.2+    200813 B49  0.3+  0.4-    200814 718  0.1+  0.1-
200813 T05  0.2-  0.2+    200813 B49  0.0   0.3-    200814 718  0.4-  0.0
200813 T05  0.2-  0.2+    200813 L01  0.1-  0.2+    200814 I41  1.3+  0.1-
200813 T05  0.9+  0.3-    200813 L01  0.0   0.0     200814 I41  1.2+  0.4-
200813 T05  0.3-  0.3+    200813 L01  0.1-  0.1+    200814 718  0.2-  0.3-
200813 T05  0.4+  0.0     200813 L01  0.2+  0.1-    200814 718  0.1-  0.4+
200813 K63  0.3-  0.2+    200813 L01  0.1+  0.1+    200814 718  0.6-  0.1-
200813 K63  0.6-  0.2-    200813 L01  0.1-  0.0     200814 I41  0.4+  1.1+
200813 K63  0.6-  0.2+    200813 L01  0.2+  0.1-    200814 I41  0.6-  1.1+
200813 K63  0.0   0.2+    200813 C77  0.6-  0.3+    200814 160  0.1+  0.2-
200813 K63  0.1-  0.1+    200813 C77  0.2-  0.1+    200814 160  0.2+  0.1-
200813 L18  0.0   0.2+    200813 C95  0.7+  1.0-    200814 160  0.2-  0.0
200813 L18  0.1+  0.0     200813 C77  0.9-  0.2+    200814 160  0.3-  0.0
200813 L18  0.6+  0.0     200813 C95  0.3+  0.0     200814 160  0.2-  0.4-
200813 L18  0.1+  0.2-    200813 C95  1.1-  0.5+    200814 K19  0.2+  0.2+
200813 L18  0.5+  0.2-    200814 L07  0.2+  0.1-    200814 K19  0.3+  0.4-
200813 C82 (1.7-  0.3-)   200814 L07  0.1+  0.1+

Ephemeris:
2020 PL2                 a,e,i = 0.99, 0.44, 35                  q = 0.5591
Date    TT    R. A. (2000) Decl.     Delta      r    Elong.  Phase     V
2020 07 15    06 45 41.4 -19 57 56   0.3343  0.8071    43.4   120.0    25.1
...
2020 07 30    06 20 04.0 -22 34 26   0.1545  0.9307    53.1   119.3    23.7
...
2020 08 07    05 22 07.2 -23 04 52   0.06112 0.9928    68.0   108.7    21.1
...
2020 08 13    22 34 31.3 +06 57 36   0.02672 1.0371   153.3    26.0    16.5
2020 08 14    21 32 00.0 +12 48 42   0.03502 1.0443   152.8    26.3    17.1
2020 08 15    20 54 03.1 +15 49 01   0.04507 1.0514   148.1    30.6    17.8
...
2020 08 21    19 41 10.6 +20 00 43   0.1142  1.0926   132.9    42.7    20.2
...
2020 08 29    19 22 36.0 +20 26 18   0.2108  1.1440   125.0    46.3    21.8
...
2020 09 13    19 20 18.7 +19 46 59   0.3937  1.2285   115.6    47.6    23.3

M. P. C. Staff               (C) Copyright 2020 MPC           M.P.E.C. 2020-P87




More information about the Iaude mailing list